Weather in Usovka

Russia / Omsk Oblast     54°54′50″N   72°39′05″E
temp.,
°C
wind,
m/s
gust,
m/s
humid.,
%
clouds,
%
prec.,
mm/h
press.,
hPa
HPBL,
m
15 may, sat
sat1500:00+16sw455087 0.0 102457
03:00+14sw49575 0.0 1023131
06:00+14wsw49588 0.0 1022142
09:00+22wsw6114033 0.0 1022379
12:00+27w793113 0.0 10201076
15:00+29w79275 0.0 10193044
18:00+29w57295 0.0 10172575
21:00+21w81548100 0.1 1017327
16 may, sun
sun1600:00+18wnw33571 0.2 101850
03:00+16wsw410700 0.3 1016188
06:00+16wsw514694 0.3 1015249
09:00+23wnw6104963 0.0 1015401
12:00+26nw71038100 0.0 10151640
15:00+28nw8133481 0.0 10152601
18:00+27nnw6123766 0.0 10152683
21:00+20ne346126 0.1 101649
17 may, mon
mon1700:00+18nne236867 0.7 101645
03:00+16nw22817 0.1 101734
06:00+16nw127835 0.1 101814
09:00+22sw345347 0.0 1018409
12:00+28wsw57335 0.0 10161110
15:00+31wnw710225 0.0 10153253
18:00+30nw510255 0.0 10143470
21:00+24wsw45390 0.0 101359
18 may, tue
tue1800:00+21w515432 0.0 1013314
03:00+21nw612440 0.0 1012373
06:00+17wnw411605 0.0 1013272
09:00+22nw47484 0.0 1013518
12:00+26wnw6103740 0.0 10121984
15:00+27wnw61032100 0.0 10113426
18:00+26nnw7123451 0.0 10092736
21:00+19n2365100 0.0 101048
19 may, wed
wed1900:00+15nw467972 0.1 1011130
03:00+14nnw488699 0.0 1011224
06:00+13nne5990100 0.6 1012449
09:00+12nne6983100 0.8 1014675
12:00+12n71079100 0.9 1016921
15:00+17n7103765 0.1 10162362
18:00+15n7114283 0.1 10182208
21:00+12nne6114736 0.0 1020439